Flag for Colombia Weather past 2 weeks in Barranquilla, Colombia

Now
79 °F

Clear.


Feels Like: 82 °F
Forecast: 79 / 86 °F
Wind: 5 mph from Southeast

Location: Barranquilla / Ernestocortissoz

Current Time: Jul 8, 2015 at 2:02:14 AM

Latest Report: Jul 8, 2015 at 1:00 AM


Visibility: 10 mi

Pressure: 29.88 "Hg

Humidity: 89%

Dew point: 75 °F

Location of BarranquillaLocation

Historic Weather in Barranquilla — Graph

°F

Barranquilla temperature yesterday

Maximum temperature yesterday: 90 °F (at 11:00 AM)
Minimum temperature yesterday: 79 °F (at 12:00 AM)
Average temperature yesterday: 82 °F

Past Weeks' High & Low Weather Summary

 TemperatureHumidityPressure
High97 °F (Jun 24, 12:00 PM)100% (Jul 1, 5:00 AM)29.90 "Hg (Jul 1, 5:00 AM)
Low77 °F (Jul 1, 5:00 AM)53% (Jun 29, 1:00 PM)29.65 "Hg (Jul 3, 5:00 PM)
Average84 °F77%29.79 "Hg
* Reported Jun 23 1:00 AM — Jul 8 1:00 AM, Barranquilla, Weather by CustomWeather, © 2015

Note: Actual official high and low records may vary slightly from our data, if they occured in-between our weather recording intervals... More about our weather records

Advertising

Barranquilla weather history for previous 24 hours

 ConditionsComfort  
Time TempWeatherWind HumidityBarometerVisibility
1:00 AM
Wed, Jul 8
79 °FClear.5 mph89%29.88 "Hg10 mi
12:00 AM79 °FClear.12 mph89%29.87 "Hg10 mi
11:00 PM
Tue, Jul 7
79 °FPassing clouds.8 mph89%29.88 "HgN/A
10:00 PM79 °FClear.12 mph89%29.88 "Hg10 mi
9:00 PM79 °FPassing clouds.8 mph89%29.88 "HgN/A
8:00 PM79 °FClear.9 mph89%29.86 "Hg10 mi
7:00 PM79 °FClear.10 mph89%29.85 "Hg10 mi
6:00 PM82 °FPartly sunny.14 mph79%29.82 "HgN/A
5:00 PM82 °FPartly sunny.14 mph79%29.82 "HgN/A
4:00 PM84 °FPartly sunny.12 mph74%29.83 "HgN/A
3:00 PM86 °FPartly sunny.16 mph70%29.84 "HgN/A
2:00 PM88 °FBroken clouds.9 mph66%29.85 "HgN/A
1:00 PM90 °FBroken clouds.14 mph67%29.87 "HgN/A
12:00 PM90 °FScattered clouds.9 mph67%29.88 "HgN/A
11:00 AM90 °FScattered clouds.7 mph63%29.88 "HgN/A
10:00 AM84 °FBroken clouds.5 mph79%29.90 "Hg5 mi
9:00 AM84 °FFog.6 mph79%29.90 "Hg5 mi
8:00 AM82 °FFog.7 mph84%29.89 "Hg4 mi
7:00 AM79 °FFog.6 mph89%29.86 "Hg4 mi
6:00 AM79 °FFog.3 mph89%29.83 "Hg5 mi
5:00 AM79 °FPassing clouds.3 mph89%29.82 "HgN/A
4:00 AM79 °FClear.6 mph89%29.81 "Hg10 mi
3:00 AM81 °FClear.5 mph84%29.80 "Hg10 mi
2:00 AM81 °FClear.8 mph79%29.80 "Hg10 mi
Weather by CustomWeather, © 2015

See weather overviewHow to use our weather pages